Flag for Australia Weather past 2 weeks in Bendigo, Victoria, Australia

Now
51 °F

Overcast.


Feels Like: 50 °F
Forecast: 43 / 49 °F
Wind: 5 mph from East

Location: Bendigo Airport Aws

Current Time: Jul 8, 2015 at 4:47:05 PM

Latest Report: Jul 8, 2015 at 3:00 PM


Visibility: N/A

Pressure: 30.30 "Hg

Humidity: 77%

Dew point: 44 °F

Location of BendigoLocation

Historic Weather in Bendigo — Graph

°F

Bendigo temperature yesterday

Maximum temperature yesterday: 55 °F (at 2:00 PM)
Minimum temperature yesterday: 34 °F (at 11:00 PM)
Average temperature yesterday: 44 °F

Past Weeks' High & Low Weather Summary

 TemperatureHumidityPressure
High61 °F (Jun 23, 3:00 PM)98% (Jun 24, 6:00 AM)30.57 "Hg (Jun 24, 6:00 AM)
Low27 °F (Jul 3, 8:00 AM)47% (Jul 2, 2:00 PM)30.00 "Hg (Jul 6, 2:00 PM)
Average45 °F80%30.31 "Hg
* Reported Jun 23 3:00 PM — Jul 8 3:00 PM, Bendigo, Weather by CustomWeather, © 2015

Note: Actual official high and low records may vary slightly from our data, if they occured in-between our weather recording intervals... More about our weather records

Advertising

Bendigo weather history for previous 24 hours

 ConditionsComfort  
Time TempWeatherWind HumidityBarometerVisibility
3:00 PM
Wed, Jul 8
51 °FOvercast.5 mph77%30.30 "HgN/A
2:00 PM49 °FCool.1 mph83%30.31 "HgN/A
12:00 PM46 °FOvercast.2 mph87%30.35 "HgN/A
11:00 AM45 °FQuite cool.1 mph89%30.37 "HgN/A
9:00 AM40 °FOvercast.3 mph98%30.35 "Hg5 mi
8:00 AM35 °FChilly.No wind98%30.33 "HgN/A
6:00 AM35 °FChilly.1 mph98%30.29 "Hg2 mi
5:00 AM33 °FChilly.No wind97%30.29 "HgN/A
3:00 AM33 °FChilly.No wind97%30.28 "Hg5 mi
2:00 AM32 °FChilly.No wind96%30.28 "HgN/A
12:00 AM34 °FChilly.No wind96%30.27 "Hg5 mi
11:00 PM
Tue, Jul 7
34 °FChilly.No wind95%30.27 "HgN/A
9:00 PM37 °FChilly.2 mph96%30.26 "Hg6 mi
8:00 PM39 °FChilly.No wind96%30.25 "HgN/A
6:00 PM44 °FQuite cool.No wind91%30.23 "HgN/A
5:00 PM53 °FCool.No wind69%30.21 "HgN/A
Weather by CustomWeather, © 2015

See weather overviewHow to use our weather pages